OPS 4682 DEB, 18479

Orbit data source: Space-Track

OPS 4682 DEB, 18479 is space debris in LEO originally from a launch on Sat, 03 Apr 1965 UTC launched from the Air Force Western Test Range (AFWTR). Debris objects in space refer to the collection of defunct objects orbiting the Earth. Examples of debris include non-operational satellites, rocket bodies, and fragments generated from explosions, collisions, or faulty payload assembly.

Loading next visibility...
Identifier
18479, 1965-027AC
Orbit
LEO
Last TLE update
2 days ago
Origin
Manufacturer
Unknown
Mission
Spacecraft
Bus & Motor
Unknown
Mass
Unknown
Launch date (UTC)
1965-04-03 (60 years ago)
Launch vehicle
Unknown
Launch site
Air Force Western Test Range (AFWTR)
Object type
Payload
Rocket body
Debris
Shape & HBR
Unknown
Radar Cross Section
Small (<0.1 m²)

Expand to show TLE details & history

TLE from 2 days ago
0 OPS 4682 DEB
1 18479U 65027AC  25180.28679579  .00000514  00000-0  17436-2 0  9991
2 18479  90.2346 358.1279 0026728 271.9321 209.7792 12.97421805901993
Epoch: 2025-06-29T06:52Z
TLE epoch observation values (Epoch: 2025-06-29T06:52:59.156Z)
Latitude
58.52829°
Longitude
157.64963°
Altitude
1,299.919 km
Speed
7.204 km/s
True Right ascension
11h 54m 02s
True Declination
58° 23' 09"
Sunlit
Object was in daylight at epoch
Visualization orbit readout
Latitude
-83.47283°
Longitude
-20.64554°
Altitude
1,280.653 km
Speed
7.225 km/s
Apparent Right ascension
08h 46m 46s
Apparent Declination
-69° 51' 21"
Sunlit
Object is in daylight
Visualization observer readout
Local Sidereal Time
21:17:27
Azimuth
174.757° S
Elevation
-59.79°
Doppler factor
1
Orbital elements
Apogee altitude
1,289.776 km
Perigee altitude
1,248.896 km
Semi-major axis
7,647.473 km
Eccentricity
0.00267
Inclination
90.2346°
RAAN
358.1279°
Arg. of periapsis
271.9321°
True anomaly
Unknown
Mean anomaly
209.7792°
Eccentric anomaly
Unknown
Mean motion
3.24539 °/min
Orbital period
110.93 mins
BSTAR
0.0017436
Loading maneuver chart data...
Loading SW <> Apogee altitude chart data...
Loading historical data...
Loading historical data...
Loading historical data...
Loading historical data...
Loading historical data...
Loading historical data...
Loading historical data...

OPS 4682 DEB Visibility forecast

Observer location: undefined°, undefined°

Span
Click to sort rows by Start time (UTC) header in descending order
Start Az.
Max El. time (UTC)
Max El. Az.
Max El.
End time (UTC)
End Az.
7 mins2025-07-01 10:15:08.510Z95.87° ESE2025-07-01 10:19:08.510Z63.207° ENE14.315°2025-07-01 10:22:08.510Z39.094° NE
13 mins2025-07-01 12:02:08.510Z171.983° S2025-07-01 12:08:08.510Z98.933° ESE44.851°2025-07-01 12:15:08.510Z359.096° N
7 mins2025-07-01 13:57:08.510Z260.152° W2025-07-01 14:00:08.510Z287.013° WNW16.33°2025-07-01 14:04:08.510Z320.005° NNW
13 mins2025-07-01 23:39:08.510Z11.706° NNE2025-07-01 23:45:08.510Z73.854° E40.855°2025-07-01 23:52:08.510Z166.965° S
10 mins2025-07-02 01:31:08.510Z330.989° NNW2025-07-02 01:36:08.510Z282.102° WNW23.179°2025-07-02 01:41:08.510Z238.394° WSW
|